Temp
-14 -14 -13 -13 -14 -13 -13 -13 -13 -13 -13 -14 -14 -14 -15 -17 -18 -20 -23 -24 -24 -25 -25 -25 -26 -25 -25 -25 -25 -24 -24 -24 -23 -21 -20 -22 -21 -20 -19 -19 -19 -18 -18
-14 -14 -13 -13 -14 -14 -14 -14 -14 -14 -14 -14 -15 -16 -17 -18 -21 -23 -24 -25 -25 -26 -26 -26 -26 -26 -26 -26 -26 -25 -25 -25 -25 -24 -23 -22 -23 -23 -22 -22 -21 -20 -20
-14 -14 -13 -14 -14 -14 -15 -15 -14 -14 -14 -15 -17 -18 -20 -22 -24 -25 -25 -25 -26 -27 -27 -28 -28 -27 -27 -27 -27 -26 -27 -26 -25 -25 -24 -24 -23 -23 -22 -22 -22 -22 -21
-14 -14 -14 -15 -15 -15 -15 -15 -15 -15 -15 -17 -18 -20 -23 -24 -25 -25 -25 -27 -27 -28 -28 -28 -28 -28 -28 -28 -27 -27 -27 -26 -25 -25 -25 -25 -25 -24 -23 -22 -21 -21 -20
-16 -15 -15 -15 -15 -15 -15 -15 -15 -16 -17 -18 -20 -24 -24 -25 -25 -25 -27 -27 -28 -28 -29 -29 -29 -29 -28 -28 -28 -28 -28 -27 -26 -26 -26 -26 -25 -24 -24 -23 -22 -22 -22
-15 -15 -15 -15 -15 -15 -15 -15 -17 -18 -19 -22 -24 -24 -25 -24 -26 -27 -28 -28 -28 -29 -29 -29 -29 -29 -29 -28 -28 -28 -28 -27 -27 -27 -26 -26 -26 -25 -24 -23 -22 -22 -22
-14 -15 -16 -16 -16 -16 -16 -17 -18 -19 -22 -24 -25 -25 -25 -26 -27 -28 -28 -28 -28 -28 -29 -29 -29 -29 -29 -29 -29 -28 -28 -28 -27 -27 -27 -27 -26 -25 -25 -24 -23 -23 -23
-16 -16 -16 -16 -16 -17 -17 -18 -19 -22 -24 -25 -25 -25 -26 -27 -28 -28 -29 -29 -29 -29 -29 -29 -29 -29 -29 -29 -29 -29 -28 -28 -28 -27 -26 -26 -26 -25 -25 -25 -23 -24 -24
-16 -17 -17 -17 -17 -18 -19 -20 -23 -25 -25 -25 -25 -26 -27 -27 -28 -28 -28 -28 -28 -28 -28 -28 -28 -28 -29 -29 -29 -29 -29 -29 -29 -27 -26 -26 -26 -25 -25 -24 -23 -24 -24
-17 -17 -17 -17 -19 -19 -21 -23 -25 -26 -25 -26 -26 -26 -27 -27 -28 -28 -28 -28 -28 -28 -28 -28 -28 -28 -29 -29 -29 -30 -29 -29 -28 -28 -26 -26 -26 -25 -25 -24 -24 -24 -25
-17 -17 -18 -19 -19 -21 -23 -25 -26 -26 -26 -26 -26 -26 -27 -27 -28 -28 -28 -28 -28 -28 -28 -28 -28 -28 -29 -29 -30 -30 -30 -29 -28 -28 -26 -26 -25 -25 -24 -24 -24 -25 -25
-17 -19 -20 -20 -21 -24 -25 -26 -26 -26 -26 -26 -26 -27 -27 -28 -28 -28 -28 -28 -28 -28 -27 -28 -28 -29 -29 -30 -30 -30 -29 -29 -28 -27 -26 -25 -25 -24 -24 -25 -25 -25 -25
-20 -20 -20 -22 -24 -26 -27 -27 -27 -26 -26 -26 -26 -26 -27 -27 -28 -28 -28 -28 -28 -27 -28 -28 -28 -29 -30 -30 -30 -30 -30 -29 -28 -27 -26 -25 -25 -25 -25 -25 -25 -25 -26
-20 -21 -23 -25 -26 -27 -27 -27 -27 -27 -27 -27 -27 -27 -27 -27 -27 -28 -28 -28 -28 -28 -28 -28 -29 -30 -30 -30 -30 -30 -29 -28 -27 -26 -26 -25 -25 -25 -26 -26 -25 -25 -26
-22 -24 -26 -27 -27 -27 -27 -27 -27 -27 -27 -27 -27 -27 -27 -27 -27 -27 -27 -27 -28 -28 -28 -29 -29 -30 -30 -30 -30 -29 -29 -28 -27 -26 -26 -25 -25 -25 -25 -26 -26 -26 -26
-25 -26 -27 -28 -28 -28 -28 -28 -28 -28 -28 -28 -27 -27 -27 -27 -27 -27 -27 -27 -28 -28 -28 -29 -29 -30 -30 -30 -29 -29 -28 -28 -26 -26 -26 -25 -25 -25 -25 -25 -25 -25 -25
-27 -28 -28 -28 -28 -28 -28 -28 -28 -28 -28 -28 -28 -28 -28 -27 -27 -27 -27 -27 -28 -28 -28 -29 -29 -30 -30 -29 -29 -29 -28 -27 -26 -26 -26 -26 -25 -25 -25 -25 -25 -25 -25
-28 -28 -28 -28 -28 -28 -28 -28 -28 -28 -28 -28 -28 -28 -28 -28 -27 -27 -28 -27 -27 -28 -28 -29 -29 -30 -30 -29 -29 -29 -28 -27 -26 -26 -26 -26 -25 -25 -25 -25 -25 -25 -25
-28 -28 -28 -28 -28 -28 -28 -28 -28 -28 -28 -28 -28 -28 -28 -28 -27 -27 -28 -28 -28 -28 -28 -28 -29 -29 -29 -29 -29 -28 -28 -27 -27 -26 -26 -26 -26 -25 -25 -25 -25 -25 -25
-28 -29 -29 -29 -29 -29 -29 -29 -29 -29 -29 -29 -29 -29 -29 -28 -28 -28 -28 -28 -28 -28 -28 -28 -29 -29 -29 -29 -28 -28 -28 -27 -27 -27 -26 -26 -26 -26 -26 -26 -26 -26 -26
-29 -29 -29 -29 -29 -29 -29 -29 -29 -29 -29 -29 -29 -29 -29 -29 -28 -28 -28 -28 -28 -28 -28 -28 -28 -29 -29 -28 -28 -28 -28 -27 -27 -27 -27 -26 -26 -26 -26 -26 -26 -26 -26
-29 -29 -29 -29 -29 -29 -29 -29 -29 -29 -29 -29 -29 -29 -29 -29 -29 -28 -28 -28 -28 -28 -28 -28 -28 -29 -29 -28 -28 -28 -28 -27 -27 -27 -27 -27 -27 -27 -26 -26 -26 -27 -27
-29 -29 -29 -29 -29 -29 -29 -29 -29 -29 -29 -29 -29 -29 -29 -29 -29 -29 -28 -28 -28 -28 -28 -28 -29 -29 -29 -29 -28 -28 -28 -28 -28 -27 -27 -27 -27 -27 -27 -27 -27 -27 -27
-29 -29 -29 -29 -29 -29 -29 -29 -29 -29 -29 -29 -29 -29 -29 -29 -29 -29 -29 -29 -28 -28 -28 -29 -29 -29 -29 -29 -29 -28 -28 -28 -28 -28 -27 -27 -27 -27 -27 -27 -27 -28 -28
-29 -29 -29 -29 -29 -29 -29 -29 -29 -29 -29 -29 -29 -29 -29 -29 -29 -29 -29 -29 -29 -28 -28 -28 -29 -29 -29 -29 -29 -28 -28 -28 -28 -28 -28 -28 -28 -28 -28 -28 -28 -28 -29
-30 -30 -30 -30 -30 -30 -30 -29 -29 -29 -29 -29 -29 -29 -29 -29 -29 -29 -29 -29 -29 -29 -28 -28 -29 -29 -29 -29 -28 -28 -28 -28 -28 -28 -28 -28 -28 -28 -28 -28 -29 -29 -29
Height
5719 5714 5709 5703 5698 5692 5684 5674 5666 5659 5648 5639 5629 5617 5603 5591 5577 5564 5557 5550 5542 5538 5534 5532 5528 5524 5522 5519 5514 5513 5509 5511 5513 5528 5528 5529 5534 5542 5550 5557 5566 5571 5579
5705 5700 5692 5686 5681 5674 5666 5659 5650 5641 5630 5618 5604 5593 5582 5569 5557 5547 5539 5533 5526 5520 5516 5512 5509 5505 5504 5502 5499 5500 5498 5497 5498 5507 5512 5515 5515 5519 5525 5533 5541 5548 5558
5688 5682 5677 5673 5667 5660 5652 5645 5635 5623 5609 5596 5584 5571 5559 5548 5540 5531 5523 5515 5508 5501 5497 5493 5491 5489 5488 5486 5484 5484 5483 5484 5484 5489 5499 5500 5504 5506 5509 5514 5519 5525 5534
5674 5669 5666 5660 5653 5645 5636 5626 5613 5601 5589 5578 5565 5552 5542 5534 5525 5515 5505 5497 5490 5485 5481 5479 5476 5473 5472 5471 5470 5471 5471 5470 5471 5474 5482 5486 5489 5492 5494 5498 5503 5509 5515
5662 5658 5652 5645 5636 5627 5617 5606 5594 5583 5572 5559 5548 5538 5528 5518 5508 5498 5489 5482 5476 5470 5466 5464 5463 5461 5460 5459 5459 5458 5459 5459 5461 5462 5466 5471 5477 5479 5480 5482 5484 5489 5494
5648 5643 5636 5628 5618 5609 5599 5589 5580 5567 5554 5543 5534 5524 5515 5504 5492 5484 5478 5473 5464 5455 5455 5455 5454 5452 5450 5448 5447 5445 5446 5447 5450 5450 5454 5458 5463 5466 5467 5467 5467 5471 5472
5632 5626 5619 5611 5602 5592 5583 5574 5562 5551 5539 5530 5521 5512 5502 5490 5482 5475 5470 5464 5457 5451 5448 5446 5444 5442 5439 5437 5436 5435 5434 5435 5437 5439 5444 5447 5449 5451 5451 5452 5452 5452 5454
5617 5611 5602 5594 5586 5576 5564 5555 5545 5535 5527 5519 5510 5502 5492 5481 5473 5467 5462 5456 5450 5445 5440 5437 5434 5431 5427 5424 5423 5425 5424 5424 5423 5428 5432 5435 5435 5436 5436 5435 5435 5435 5436
5601 5594 5587 5580 5569 5558 5548 5537 5529 5522 5515 5509 5500 5492 5484 5476 5468 5461 5455 5449 5444 5439 5433 5428 5422 5419 5415 5411 5411 5412 5413 5413 5412 5416 5421 5422 5422 5424 5424 5421 5422 5423 5424
5586 5579 5569 5560 5552 5543 5531 5523 5517 5512 5507 5500 5491 5482 5475 5470 5462 5455 5448 5442 5436 5431 5425 5418 5410 5403 5401 5398 5396 5397 5400 5402 5403 5405 5408 5411 5412 5412 5412 5410 5410 5412 5416
5570 5561 5551 5544 5536 5526 5518 5512 5508 5503 5497 5491 5484 5475 5467 5461 5454 5447 5440 5433 5426 5420 5412 5405 5396 5389 5385 5383 5382 5383 5386 5390 5392 5396 5399 5401 5403 5403 5403 5401 5401 5403 5407
5551 5544 5536 5528 5519 5512 5506 5502 5498 5494 5488 5482 5475 5468 5460 5453 5445 5439 5432 5424 5415 5406 5396 5385 5379 5376 5373 5372 5372 5374 5377 5380 5384 5388 5392 5394 5395 5396 5394 5393 5394 5396 5399
5535 5528 5520 5511 5505 5500 5497 5493 5488 5483 5478 5473 5467 5461 5454 5446 5438 5431 5424 5415 5406 5395 5385 5377 5371 5366 5364 5364 5365 5367 5371 5375 5379 5382 5384 5387 5389 5389 5388 5389 5390 5391 5395
5519 5511 5504 5498 5493 5490 5486 5482 5477 5473 5467 5462 5458 5452 5446 5438 5430 5423 5416 5408 5398 5387 5379 5371 5365 5362 5361 5360 5361 5365 5368 5371 5373 5377 5381 5383 5384 5384 5385 5387 5389 5390 5394
5502 5495 5491 5488 5484 5480 5475 5472 5467 5460 5456 5452 5447 5442 5437 5430 5422 5414 5408 5401 5392 5382 5374 5368 5363 5361 5359 5359 5361 5363 5365 5367 5370 5374 5378 5380 5382 5383 5384 5386 5389 5392 5395
5488 5485 5481 5477 5474 5471 5467 5462 5455 5451 5445 5440 5436 5431 5427 5420 5414 5407 5400 5394 5386 5377 5370 5365 5361 5360 5358 5360 5361 5362 5363 5365 5369 5373 5377 5380 5382 5385 5386 5388 5391 5394 5397
5476 5472 5470 5467 5464 5460 5455 5452 5449 5444 5435 5429 5424 5419 5415 5411 5406 5400 5394 5388 5380 5372 5367 5363 5359 5358 5358 5359 5360 5361 5363 5365 5369 5373 5376 5380 5383 5386 5389 5391 5393 5396 5398
5466 5463 5460 5456 5453 5449 5443 5439 5435 5431 5428 5423 5414 5406 5403 5400 5397 5392 5387 5382 5376 5369 5364 5360 5356 5356 5357 5358 5359 5361 5362 5365 5369 5372 5376 5379 5383 5386 5390 5393 5395 5397 5399
5455 5451 5448 5444 5439 5436 5432 5426 5421 5417 5412 5406 5400 5395 5390 5387 5386 5384 5380 5376 5371 5365 5361 5357 5354 5353 5355 5356 5358 5360 5362 5365 5368 5371 5375 5379 5383 5386 5390 5393 5395 5397 5399
5443 5439 5435 5431 5427 5422 5418 5414 5409 5405 5400 5394 5389 5385 5382 5378 5375 5374 5372 5369 5366 5361 5357 5355 5353 5352 5354 5355 5357 5359 5361 5365 5368 5371 5375 5378 5382 5385 5388 5391 5393 5394 5396
5429 5425 5421 5418 5413 5409 5405 5401 5398 5393 5389 5385 5381 5376 5373 5370 5367 5366 5364 5362 5360 5356 5353 5352 5351 5351 5352 5354 5356 5357 5360 5364 5367 5370 5373 5376 5379 5382 5385 5388 5390 5391 5393
5416 5412 5406 5402 5398 5395 5392 5389 5385 5381 5377 5374 5372 5369 5364 5362 5359 5358 5357 5356 5354 5352 5348 5348 5348 5348 5349 5351 5354 5355 5357 5361 5365 5368 5371 5374 5377 5380 5382 5384 5385 5387 5389
5402 5397 5391 5387 5384 5382 5379 5376 5373 5369 5366 5363 5361 5359 5357 5354 5352 5350 5349 5349 5348 5346 5344 5343 5344 5344 5346 5348 5350 5352 5354 5358 5362 5365 5368 5371 5374 5376 5378 5380 5382 5383 5385
5382 5379 5376 5372 5369 5366 5364 5362 5360 5357 5354 5352 5350 5349 5347 5346 5344 5342 5342 5341 5341 5341 5339 5339 5339 5340 5342 5344 5347 5349 5351 5356 5359 5362 5365 5368 5370 5372 5373 5375 5377 5379 5381
5365 5361 5358 5355 5352 5349 5348 5346 5344 5342 5340 5339 5338 5337 5336 5335 5335 5334 5334 5334 5334 5335 5334 5334 5335 5336 5338 5341 5344 5346 5349 5352 5356 5358 5361 5364 5366 5367 5369 5371 5372 5374 5376
5347 5343 5340 5336 5333 5330 5328 5327 5326 5325 5324 5323 5323 5323 5323 5324 5324 5324 5324 5325 5326 5327 5328 5329 5330 5332 5334 5337 5339 5342 5345 5348 5351 5353 5356 5358 5360 5363 5365 5366 5367 5369 5371
Wind_Speed
54 58 61 64 65 69 73 76 80 82 85 87 92 95 98 102 103 92 77 70 66 64 63 60 59 61 60 55 72 59 49 61 60 73 78 78 80 84 84 87 88 84 81
57 61 65 67 70 72 76 80 82 84 87 92 95 99 104 103 90 74 69 67 68 66 64 62 62 62 60 59 59 68 57 51 45 55 61 77 70 62 66 74 82 83 83
61 65 70 69 71 75 78 80 83 86 91 96 99 103 95 81 70 68 69 70 68 66 61 56 54 56 57 61 62 57 55 57 51 41 43 50 56 61 63 63 65 69 74
66 70 69 71 74 77 79 82 85 90 94 97 101 93 74 67 67 71 74 65 59 56 55 54 53 51 51 53 56 53 42 42 45 42 40 37 39 42 50 60 71 77 81
68 71 71 74 78 80 80 83 88 93 96 100 86 67 65 65 71 70 55 54 55 56 53 47 44 44 40 42 43 44 40 38 42 43 40 35 34 37 42 47 52 56 56
71 71 75 78 80 79 81 86 91 94 96 77 62 61 61 69 63 51 47 44 46 40 35 39 43 45 43 39 40 38 40 44 32 28 30 30 34 38 43 49 51 59 65
71 73 76 77 78 82 86 89 92 93 72 58 56 58 62 59 52 48 48 45 41 34 41 48 36 38 40 45 41 38 36 39 44 34 34 37 36 37 45 51 54 50 52
72 75 75 77 81 84 88 91 89 68 55 52 53 55 55 52 46 42 37 37 36 35 34 37 38 39 43 46 43 38 36 40 40 41 40 41 39 37 44 47 44 45 42
74 75 76 79 83 86 88 83 65 51 48 48 49 49 48 46 42 37 37 38 36 36 40 41 43 42 42 41 42 40 37 36 45 38 43 41 39 40 42 38 39 32 37
73 74 77 82 83 84 77 61 48 45 46 46 46 46 45 43 38 36 40 39 39 40 42 44 48 49 46 48 43 39 39 39 41 38 40 38 40 38 34 31 29 27 31
72 76 80 81 82 78 58 49 45 44 44 44 43 44 43 42 38 40 41 44 45 45 48 51 51 47 41 40 35 31 32 34 34 33 32 38 38 31 27 27 25 26 27
75 77 78 80 75 57 48 44 44 44 43 42 41 42 41 40 41 44 45 46 50 53 56 46 36 34 35 30 24 25 25 23 23 23 25 28 26 21 23 21 23 25 23
74 76 76 70 54 45 43 44 44 46 45 44 42 40 42 43 44 44 46 47 50 55 41 36 31 31 20 17 20 20 18 19 18 13 17 19 17 19 19 17 18 22 18
75 73 63 49 43 42 44 45 45 46 45 45 45 43 42 43 44 45 46 46 49 46 40 32 30 16 15 16 14 13 13 13 10 9 13 13 12 14 14 14 10 8 14
68 56 47 43 41 43 44 46 47 47 46 46 45 43 42 42 44 42 40 41 45 39 35 30 19 14 14 13 10 12 12 9 9 12 13 10 10 8 10 15 18 14 16
54 46 42 41 42 43 44 46 48 47 47 48 47 45 43 43 43 41 37 39 42 34 31 27 17 15 15 13 11 13 13 9 14 14 15 12 11 10 12 13 15 18 20
44 41 41 42 42 43 44 45 45 47 50 53 53 50 47 44 43 40 35 36 38 32 29 24 18 15 16 14 13 13 12 15 20 17 16 15 13 11 12 13 14 14 14
39 39 41 44 45 47 48 50 51 53 54 54 54 54 50 46 41 39 32 33 33 31 27 23 18 16 16 16 17 12 9 18 24 20 17 15 13 13 12 11 12 11 11
42 43 44 45 48 51 53 55 57 59 56 50 47 45 45 43 39 35 30 30 30 29 24 20 17 12 18 16 15 11 12 24 24 21 20 19 18 17 18 17 15 14 14
43 45 47 51 53 55 57 57 54 49 45 42 42 41 38 36 34 31 28 27 27 26 20 15 13 11 17 14 15 14 15 27 25 23 23 21 20 17 14 11 12 13 15
48 51 53 56 57 57 53 49 48 46 42 39 37 38 37 34 31 28 25 24 24 24 17 13 12 13 17 16 16 13 16 27 27 24 23 21 19 18 16 16 17 17 17
53 55 57 57 54 51 49 48 45 44 43 41 38 35 35 32 30 26 23 22 23 21 15 14 14 17 17 23 16 16 16 27 27 28 25 24 22 22 21 20 18 16 15
58 59 57 53 52 51 48 46 45 43 43 42 40 37 32 31 30 26 23 21 21 19 15 15 16 18 19 21 22 19 19 28 28 27 26 24 22 22 21 19 18 17 17
59 56 55 55 53 52 50 48 46 45 45 44 42 39 37 32 30 27 24 22 22 19 16 16 15 17 20 22 23 17 22 27 27 27 24 22 23 22 21 19 19 19 18
60 59 58 57 56 55 54 52 50 48 47 45 43 41 38 36 31 29 26 24 23 21 16 17 16 17 20 21 16 20 22 23 26 27 27 26 24 22 22 22 21 21 20
61 61 61 61 60 60 58 56 54 52 50 48 46 44 42 39 35 30 28 27 25 24 19 17 21 19 23 23 21 23 26 24 25 27 27 25 24 23 23 23 22 21 20
Wind_Direction
287 288 290 289 289 290 291 294 296 298 298 299 298 299 301 304 307 307 304 299 296 292 290 288 282 278 281 277 268 254 251 254 255 248 249 253 252 250 249 248 246 250 251
288 288 287 290 293 293 295 297 300 301 301 299 302 304 306 307 308 303 300 298 295 295 292 287 281 276 274 268 274 265 270 269 266 255 254 256 260 262 258 255 252 250 243
287 287 290 293 294 295 299 302 300 301 302 304 307 309 311 308 303 302 301 299 297 292 285 283 283 281 278 273 277 282 285 277 274 262 250 252 256 259 261 264 266 266 260
285 287 291 294 296 299 300 301 302 302 304 307 309 310 307 303 304 303 302 299 296 292 289 286 287 284 280 280 277 281 280 265 261 250 254 249 250 255 259 260 261 261 262
288 291 295 297 297 299 302 302 302 305 307 310 310 306 305 307 307 306 303 302 300 293 287 285 283 284 282 285 278 273 272 262 258 260 244 242 248 255 260 260 261 261 261
291 295 296 298 300 301 301 302 304 307 309 311 308 308 310 311 311 308 310 308 314 295 280 282 283 280 286 287 286 278 260 256 255 257 253 248 249 255 259 259 269 270 267
292 295 298 299 300 301 303 304 307 309 312 309 310 312 315 318 311 304 304 307 306 304 282 286 285 282 278 287 281 283 274 261 255 255 265 264 261 258 263 262 267 267 265
294 296 296 298 300 302 304 306 309 312 310 311 314 316 324 325 320 313 312 315 315 310 301 296 296 291 285 281 276 272 277 263 248 248 258 263 271 269 275 266 265 266 258
293 294 297 299 300 304 305 309 312 309 310 314 318 322 325 321 322 321 319 317 313 307 304 299 296 296 289 285 281 269 267 265 256 243 252 265 273 276 274 268 262 261 252
292 295 296 299 303 304 308 309 305 307 310 314 319 320 321 323 317 317 315 316 315 309 306 304 300 295 288 286 278 270 261 260 257 246 251 263 271 272 268 276 267 258 242
292 294 298 301 303 307 306 301 303 307 310 312 319 319 318 319 316 313 315 316 316 312 307 302 296 291 285 282 278 261 256 254 252 245 247 261 270 265 272 273 257 246 232
293 297 299 301 307 304 298 299 304 306 308 311 316 319 316 316 316 314 313 314 319 318 315 308 297 290 287 277 262 257 255 243 238 241 252 261 254 268 278 255 246 235 226
296 298 301 306 303 297 295 299 303 305 307 309 311 315 316 310 310 314 317 317 320 323 321 318 307 302 286 258 261 249 236 230 229 235 253 248 258 268 261 244 241 227 214
297 300 303 299 296 294 295 299 302 303 305 307 308 310 312 317 313 308 313 319 322 323 321 315 312 295 284 267 240 232 226 219 216 237 226 241 250 248 240 237 241 234 223
298 298 296 294 292 294 297 299 303 305 306 306 306 308 310 312 317 315 311 319 324 322 322 317 308 293 273 237 227 223 212 230 233 196 205 206 201 187 217 216 214 220 213
294 293 291 291 292 293 297 301 305 305 307 306 306 307 309 312 314 317 314 319 325 322 321 318 297 281 254 229 228 225 206 208 188 180 181 188 188 173 161 171 193 205 211
288 287 288 290 294 297 299 300 300 303 305 305 305 305 305 307 310 315 313 316 326 323 320 315 298 276 242 227 226 218 250 196 180 178 184 182 175 179 176 171 166 168 169
282 283 287 292 295 297 299 301 303 302 300 299 299 299 299 300 302 309 310 312 324 327 319 313 305 256 243 232 232 213 198 191 179 186 185 185 184 185 175 175 180 186 195
285 287 291 295 297 299 301 302 303 302 303 302 303 303 299 295 294 300 304 305 315 327 315 312 312 267 233 229 222 207 204 186 182 186 185 192 191 192 201 208 213 220 225
290 294 296 297 298 299 301 303 302 302 304 306 307 306 306 299 290 293 299 299 307 322 308 299 294 261 225 222 216 214 204 192 195 193 194 197 200 201 207 225 238 247 253
295 297 296 297 298 299 300 300 300 302 306 308 309 309 305 304 291 287 294 291 299 316 300 278 261 255 227 214 223 212 210 198 200 198 201 205 213 217 227 240 244 249 256
295 294 296 297 297 297 298 298 299 302 304 304 305 306 306 302 297 283 288 284 290 306 293 268 248 239 231 213 217 214 211 206 209 210 210 213 219 223 233 240 247 261 260
294 295 295 295 295 295 296 297 298 300 301 302 303 305 306 302 298 284 280 279 280 292 287 261 250 238 230 227 224 220 211 205 211 211 212 215 223 231 237 247 257 257 250
294 293 293 293 293 294 294 295 296 297 298 298 298 299 300 303 296 288 272 273 268 273 285 252 252 237 230 221 228 212 207 207 214 217 221 228 234 238 248 256 259 250 245
293 292 291 291 291 291 292 292 293 293 294 294 293 293 293 295 297 289 271 265 260 257 271 247 242 227 218 206 217 217 205 209 217 224 229 236 240 245 250 257 249 244 243
293 292 291 290 290 290 290 290 289 289 289 289 288 288 287 286 287 286 275 257 255 246 247 247 230 222 209 216 218 216 215 220 226 226 230 235 239 243 254 246 241 239 242